SCP
-0 0 0 0 -0 -0 -0 -0 -0 -0 -0 0 -0 -0 -0 -0 -0 -0 0 -0 0 -0 0 0 -0 -0 -0 0 0 0 0 0 0 0 -0 -0 0 0 0 0 0 0 0 0 0
0 -0 0 0 -0 0 -0 -0 -0 -0 -0 -0 -0 -0 -0 -0 0 -0 -0 0 -0 0 0 0 -0 -0 0 0 0 0 0 0 0 0 0 -0 0 0 0 0 0 0 0 0 0
0 -0 0 0 -0 0 -0 -0 -0 -0 -0 -0 -0 -0 -0 -0 0 -0 0 0 0 0 0 0 -0 -0 0 0 -0 0 0 -0 0 0 0 -0 -0 0 0 0 0 0 0 0 0
0 0 0 0 0 0 -0 -0 -0 -0 -0 -0 -0 -0 -0 0 0 0 0 0 0 0 0 0 0 0 0 0 0 0 0 -0 0 0 0 0 0 0 0 0 0 0 0 0 0
0 0 0 0 0 0 0 0 0 -0 -0 -0 -0 -0 -0 0 -0 0 0 0 0 0 0 0 0 0 0 0 0 0 0 0 0 0 0 0 0 0 0 0 0 0 0 0 0
0 0 0 0 0 0 0 0 0 0 -0 -0 -0 -0 0 0 0 0 0 0 0 0 -0 0 0 0 0 0 0 -0 0 0 -0 0 0 0 0 0 0 0 0 0 0 0 1
0 0 0 0 0 0 0 0 0 0 -0 -0 -0 0 0 -0 0 0 0 0 0 0 0 0 0 -0 -0 -0 0 -0 -0 -0 0 0 0 0 0 0 0 0 0 0 0 1 0
0 0 0 0 0 0 0 0 0 0 -0 -0 -0 0 -0 -0 0 0 0 0 0 0 0 0 0 -0 0 0 -0 -0 0 -0 0 0 0 0 0 -0 0 0 0 0 1 0 0
0 0 0 0 0 0 0 0 0 -0 0 0 -0 -0 -0 -0 0 0 0 0 0 0 0 0 0 0 0 -0 -0 0 0 0 -0 0 -0 0 -0 0 0 0 0 0 0 0 0
0 0 0 0 0 0 0 0 0 0 -0 -0 0 0 0 0 0 0 0 0 0 0 0 0 0 -0 -0 -0 0 -0 0 -0 -0 -0 -0 -0 0 0 0 0 0 0 0 0 0
0 0 0 0 0 0 0 0 0 0 -0 0 0 0 0 0 -0 0 0 0 0 0 0 0 -0 0 -0 0 0 0 -0 0 -0 0 0 -0 0 0 0 0 0 0 0 0 0
0 0 0 0 0 0 0 0 0 0 0 -0 -0 0 -0 0 -0 0 0 0 0 -0 -0 -0 -0 -0 -0 -0 0 0 0 0 0 0 0 0 0 0 0 -0 -0 -0 0 0 0
0 0 0 0 0 0 0 0 0 0 0 0 -0 0 0 -0 -0 0 0 0 -0 -0 -0 0 -0 -0 -0 0 0 0 0 0 0 -0 -0 0 0 0 0 -0 0 -0 0 0 0
0 0 0 0 0 0 0 0 0 0 0 0 0 -0 0 -0 -0 0 0 0 0 -0 -0 -0 -0 0 -0 0 0 0 -0 0 0 0 -0 0 0 0 0 0 0 0 0 1 0
0 0 0 0 0 0 0 0 -0 0 0 0 -0 0 -0 -0 0 -0 0 0 0 0 0 -0 0 0 0 0 0 0 -0 -0 -0 0 0 0 0 0 0 0 0 0 0 -0 0
0 0 0 0 0 0 0 0 0 0 0 -0 -0 -0 -0 -0 0 0 0 0 -0 0 0 0 -0 0 0 0 0 0 0 0 0 0 0 -0 0 -0 0 0 0 0 -0 -0 0
0 0 0 0 0 0 0 0 0 0 0 -0 -0 -0 -0 -0 -0 -0 0 0 -0 0 0 0 0 0 0 0 0 -0 -0 0 0 0 -0 -0 0 0 -0 0 -0 -0 -0 0 -0
0 0 0 0 0 0 0 0 0 0 0 -0 -0 -0 -0 -0 -0 0 0 -0 0 0 0 0 0 0 0 0 -0 0 0 0 0 0 0 -0 0 0 0 0 0 0 -0 0 0
0 0 0 0 0 0 0 0 0 0 0 -0 -0 -0 -0 -0 -0 0 -0 -0 -0 0 0 0 0 0 0 0 0 0 0 0 0 0 0 0 0 -0 0 0 0 0 0 0 0
0 0 0 0 0 0 0 0 0 0 0 0 0 0 -0 0 0 -0 -0 -0 0 -0 0 0 0 0 0 0 0 0 0 0 0 0 0 0 0 0 0 0 0 0 0 0 -0
0 0 0 0 0 0 0 0 0 0 0 0 0 0 0 0 0 0 -0 0 0 0 0 0 0 0 0 0 0 0 0 0 0 0 0 0 0 0 0 0 0 0 0 0 0
0 0 0 0 0 0 0 0 0 0 0 0 0 0 0 0 0 0 0 0 0 0 0 0 0 0 -0 0 -0 0 -0 0 0 0 0 0 0 0 0 0 0 0 0 0 0
0 0 0 0 0 0 0 0 0 0 0 0 0 0 0 0 0 0 0 0 0 0 0 0 0 0 0 0 -0 0 0 0 0 0 0 0 0 0 -0 0 0 0 0 0 0
0 0 0 0 0 -0 0 0 0 0 0 0 0 0 0 0 0 0 0 0 0 0 0 0 0 0 0 0 0 0 0 0 0 0 0 0 0 0 0 0 -0 0 0 0 0
0 0 0 0 0 -0 0 0 0 0 0 0 0 0 0 0 0 0 0 0 0 0 0 0 0 0 0 0 0 0 0 0 0 0 0 0 0 -0 -0 -0 0 0 0 0 0
0 0 0 0 0 0 0 0 0 0 0 0 0 0 0 0 0 -0 0 0 0 0 0 0 0 0 0 0 0 0 0 0 0 0 0 0 0 -0 -0 0 0 0 0 0 0
0 0 0 0 0 0 0 0 0 0 0 -0 0 0 0 0 0 -0 -0 0 0 0 0 0 0 0 0 0 0 0 0 0 0 0 0 0 -0 0 0 0 0 0 0 0 0
Wind_Speed_500mb
19 19 20 19 17 18 20 23 24 28 29 31 32 33 35 37 36 41 45 7 8 6 1 15 41 37 36 49 17 18 9 8 11 16 19 28 12 28 16 46 28 22 35 40 34
23 22 23 22 19 20 21 25 25 29 29 30 32 30 33 39 47 19 11 4 8 12 10 16 23 27 27 39 22 3 11 23 21 23 18 40 8 18 15 30 9 28 36 42 36
26 24 29 25 21 22 21 27 26 28 28 29 29 28 33 41 34 10 24 11 13 13 14 22 21 21 19 33 8 7 10 15 22 38 60 35 27 19 25 7 46 60 58 43 39
28 28 34 27 22 23 22 27 26 27 26 26 26 27 37 31 3 20 22 13 9 14 22 14 10 7 9 12 12 8 21 26 26 43 39 37 25 10 18 22 56 66 69 48 55
30 30 37 28 23 25 21 25 24 23 22 24 23 30 35 21 18 16 14 4 8 15 16 13 14 13 8 15 28 6 5 20 39 56 52 45 33 20 18 21 62 73 74 36 54
31 30 35 26 25 25 20 23 21 19 20 19 23 31 34 13 13 18 7 8 17 17 6 10 20 32 28 24 3 18 27 18 26 49 51 26 14 12 13 35 79 78 66 51 61
26 32 27 25 25 24 20 19 18 17 18 18 21 33 39 16 6 10 8 11 2 13 16 16 24 12 21 18 35 16 14 13 24 33 12 29 9 14 17 37 70 75 62 59 64
27 28 26 23 23 21 18 16 16 16 17 18 22 33 18 8 8 10 4 3 4 4 16 21 26 32 9 14 20 9 12 9 7 17 12 9 14 35 23 39 50 59 49 64 69
25 25 21 23 21 20 14 15 16 14 21 15 21 17 20 9 15 5 8 5 6 6 14 19 25 10 10 10 13 14 3 7 20 13 11 14 8 22 16 42 41 42 55 63 63
20 18 20 23 19 17 14 15 17 14 20 16 24 18 11 10 5 8 7 11 19 20 18 6 6 8 13 12 9 10 5 4 3 12 11 16 22 23 9 43 52 52 58 57 48
14 18 19 21 16 15 13 11 9 9 16 21 12 12 22 18 6 9 3 6 11 16 6 11 12 12 25 15 10 6 11 5 7 10 8 8 19 14 24 40 40 57 57 42 39
9 14 17 19 19 15 15 10 6 9 19 18 35 49 39 32 12 16 11 4 3 6 6 13 13 29 15 16 10 13 10 5 7 11 19 24 15 12 23 14 13 34 40 33 38
6 16 17 21 16 15 19 20 2 25 7 20 25 32 27 7 16 22 17 9 4 7 9 9 25 19 12 6 19 7 11 8 2 8 9 12 14 16 17 28 16 26 16 30 35
8 13 20 18 9 16 24 6 14 15 9 11 7 13 22 13 8 30 28 7 3 2 11 12 36 14 14 9 8 8 6 4 9 7 6 9 3 13 14 20 27 32 14 25 41
8 14 22 23 9 19 10 7 16 5 4 9 14 12 12 16 4 13 13 4 4 8 9 16 8 12 14 1 6 2 13 17 10 14 14 21 12 15 7 19 19 36 39 12 34
7 17 22 27 24 10 12 13 1 10 10 6 18 9 7 13 7 9 3 4 5 7 3 15 3 8 10 23 13 5 16 18 12 7 11 10 10 12 9 11 12 34 42 40 36
9 18 26 33 18 10 12 14 9 5 11 9 14 7 9 9 3 6 9 3 6 7 13 15 12 12 13 18 24 23 17 9 11 11 6 9 13 12 8 16 16 29 45 39 36
10 17 27 35 7 23 19 9 7 11 13 9 12 12 12 8 8 12 8 1 7 11 9 6 12 20 20 9 13 12 11 9 1 2 5 10 5 6 2 31 54 52 48 44 37
7 14 30 27 7 8 5 6 13 11 13 18 8 11 7 8 8 7 12 10 6 9 12 7 8 3 28 17 7 10 11 12 10 5 8 6 10 8 34 38 60 60 78 66 61
4 10 31 25 9 5 8 9 9 10 10 11 8 3 8 13 10 10 10 4 7 9 22 10 8 9 7 14 23 11 3 6 8 3 5 7 2 3 20 20 22 39 52 42 38
7 6 42 28 14 6 6 11 11 22 20 9 6 9 6 5 13 11 7 6 3 10 20 8 8 12 14 5 6 11 9 9 6 8 8 5 5 5 14 9 14 30 39 34 32
5 2 46 30 11 3 4 5 27 12 9 7 8 5 6 3 3 6 8 4 3 9 8 5 10 6 13 3 9 5 4 8 8 9 3 8 2 12 10 24 37 37 40 41 40
6 6 39 43 6 4 13 13 16 5 12 10 11 9 6 8 10 6 9 9 18 10 8 5 4 6 15 13 2 10 1 7 2 7 7 7 5 6 10 17 24 29 30 38 36
6 6 8 31 6 9 5 11 7 18 12 14 6 11 11 12 15 7 6 19 22 16 15 8 8 14 12 14 8 1 8 3 11 7 4 12 10 12 11 5 20 28 30 34 33
9 6 8 4 7 4 4 7 12 2 5 13 15 7 7 7 10 8 10 7 17 15 7 9 7 7 9 9 6 12 9 12 9 11 10 11 16 17 16 20 19 18 29 30 30
8 9 14 9 15 15 9 9 10 5 9 6 5 11 15 7 8 13 12 4 3 11 8 8 1 5 11 14 13 1 7 17 9 12 16 15 5 11 21 17 16 13 24 28 28
18 8 7 11 14 8 5 12 4 3 10 19 13 9 9 12 15 37 21 23 21 12 5 5 7 7 6 4 4 12 11 12 10 8 17 12 13 28 14 17 11 28 24 22 22
Wind_Direction_500mb
248 253 261 266 275 285 295 298 305 305 310 314 315 317 318 317 314 304 291 278 208 189 279 265 254 272 289 285 309 253 108 211 205 147 226 240 149 171 161 146 167 184 150 160 168
250 256 260 266 273 286 293 297 306 307 314 315 315 323 324 322 323 315 359 256 216 219 228 246 264 287 292 288 298 287 148 213 185 175 196 215 157 162 137 155 130 132 142 149 163
252 260 260 263 272 281 292 297 305 308 314 314 318 327 325 325 326 324 340 315 224 221 238 258 271 295 287 284 237 206 231 203 175 187 187 192 213 187 158 119 157 143 153 155 177
257 255 261 260 270 278 289 294 302 309 314 314 323 328 326 324 296 315 312 324 221 218 237 239 251 276 309 311 291 290 261 172 153 167 160 172 178 223 196 134 153 147 153 153 198
254 254 259 259 268 274 284 291 300 306 312 314 323 327 331 313 288 322 328 353 166 175 174 182 256 254 247 270 300 173 288 145 178 161 161 162 189 185 201 160 153 152 165 184 197
252 254 254 259 264 270 279 287 294 302 305 310 319 324 325 288 344 10 12 134 150 140 137 275 309 304 294 270 132 297 60 52 74 176 163 159 209 172 187 139 156 168 181 180 186
256 253 256 255 257 265 273 280 288 294 295 302 316 318 312 281 13 5 98 95 120 330 327 326 322 306 305 323 321 38 43 18 55 145 174 145 1 243 204 162 160 185 191 181 187
260 256 251 249 253 260 265 274 282 284 285 291 314 315 278 298 247 252 202 326 59 318 294 327 316 319 279 310 346 18 63 21 325 156 219 158 280 240 226 172 164 188 183 191 199
251 246 247 246 247 253 261 268 270 269 271 284 302 306 282 265 225 149 232 310 24 325 293 312 304 293 322 45 359 7 17 44 344 331 138 214 263 245 190 151 134 141 182 193 203
254 251 242 242 239 248 255 259 265 261 270 285 269 298 265 321 231 227 224 266 283 283 303 327 332 20 1 50 267 309 91 57 269 4 327 343 5 25 62 150 140 157 175 189 205
246 236 230 234 237 240 248 271 279 273 277 238 278 260 307 348 176 218 190 227 235 270 1 2 31 283 273 258 242 254 145 94 261 258 15 324 51 13 57 103 129 158 174 184 204
259 241 226 234 226 231 237 232 150 348 305 300 261 268 292 295 274 234 217 194 142 236 335 1 287 265 242 280 113 94 118 221 282 271 88 77 31 345 35 98 139 173 195 211 201
254 229 218 222 217 229 239 194 179 335 297 299 269 266 268 203 221 211 205 220 251 345 310 197 253 320 273 16 85 41 61 8 281 348 97 101 36 10 330 354 73 78 190 198 209
242 216 215 204 219 209 207 97 301 354 47 277 256 277 267 244 278 208 202 210 27 225 298 244 277 224 64 81 114 46 255 38 334 18 70 19 24 355 330 329 356 24 127 208 201
264 217 211 191 200 186 129 47 328 330 50 228 212 232 230 189 341 152 160 188 124 280 68 271 307 76 68 296 102 318 46 24 4 76 87 356 71 281 336 348 341 345 22 77 185
273 219 208 207 211 111 348 157 167 54 262 230 182 239 109 207 270 178 129 335 312 305 15 244 168 91 141 51 46 24 40 33 40 65 51 312 112 305 6 315 32 50 83 100 137
266 222 209 208 142 53 19 161 54 148 292 182 181 169 177 206 236 148 168 168 143 27 9 345 349 343 25 71 18 58 50 2 18 19 186 283 59 239 337 2 43 88 82 88 111
263 223 212 199 95 23 31 63 163 243 252 227 156 150 182 192 196 193 108 273 244 73 63 53 14 359 326 64 162 62 104 127 92 141 246 350 121 322 223 55 70 72 96 90 92
260 216 218 168 170 16 13 86 210 227 302 166 86 131 245 260 161 159 171 203 267 141 133 133 61 148 61 22 60 321 41 176 122 55 68 318 328 305 52 59 64 73 82 82 87
219 206 210 165 144 52 78 229 242 254 341 72 104 104 209 229 137 137 184 205 143 159 135 197 96 37 348 14 35 76 64 40 24 76 96 318 333 276 69 90 81 84 95 98 96
160 210 172 153 170 193 159 236 293 289 39 72 103 42 359 2 155 168 178 15 84 133 101 105 85 340 42 2 228 356 10 32 112 116 144 173 315 14 138 167 109 115 99 103 86
167 189 180 179 173 153 183 233 324 273 22 2 81 74 34 320 304 97 118 6 34 103 90 65 112 78 210 291 359 43 66 86 112 296 73 133 294 345 230 138 114 117 99 82 91
0 309 184 190 169 357 299 304 277 311 28 34 21 18 11 329 92 53 107 36 90 81 127 141 46 68 346 353 28 80 278 152 101 42 119 63 272 265 282 111 99 96 76 89 82
33 29 155 201 133 127 10 297 291 46 61 30 347 34 16 16 17 108 69 33 58 68 63 83 119 145 175 205 141 326 303 214 112 102 261 171 166 238 302 86 125 82 93 88 81
41 31 23 296 263 185 107 294 298 274 39 33 344 52 39 321 43 56 35 58 42 25 64 94 102 119 214 119 154 189 227 227 146 153 143 177 165 204 218 207 118 71 97 84 69
59 12 353 303 295 184 147 263 220 199 138 264 189 333 20 27 147 185 138 114 202 1 64 10 140 87 22 181 180 356 354 100 89 132 77 141 183 194 195 164 125 72 96 79 63
35 27 335 358 359 72 280 268 282 67 213 211 226 96 43 341 322 159 162 166 171 144 107 76 103 66 298 24 86 25 337 92 86 58 156 187 189 166 201 189 133 113 92 92 63
Wind_Speed_850mb
19 19 20 19 17 18 20 23 24 28 29 31 32 33 35 37 36 41 45 7 8 6 1 15 41 37 36 49 17 18 9 8 11 16 19 28 12 28 16 46 28 22 35 40 34
23 22 23 22 19 20 21 25 25 29 29 30 32 30 33 39 47 19 11 4 8 12 10 16 23 27 27 39 22 3 11 23 21 23 18 40 8 18 15 30 9 28 36 42 36
26 24 29 25 21 22 21 27 26 28 28 29 29 28 33 41 34 10 24 11 13 13 14 22 21 21 19 33 8 7 10 15 22 38 60 35 27 19 25 7 46 60 58 43 39
28 28 34 27 22 23 22 27 26 27 26 26 26 27 37 31 3 20 22 13 9 14 22 14 10 7 9 12 12 8 21 26 26 43 39 37 25 10 18 22 56 66 69 48 55
30 30 37 28 23 25 21 25 24 23 22 24 23 30 35 21 18 16 14 4 8 15 16 13 14 13 8 15 28 6 5 20 39 56 52 45 33 20 18 21 62 73 74 36 54
31 30 35 26 25 25 20 23 21 19 20 19 23 31 34 13 13 18 7 8 17 17 6 10 20 32 28 24 3 18 27 18 26 49 51 26 14 12 13 35 79 78 66 51 61
26 32 27 25 25 24 20 19 18 17 18 18 21 33 39 16 6 10 8 11 2 13 16 16 24 12 21 18 35 16 14 13 24 33 12 29 9 14 17 37 70 75 62 59 64
27 28 26 23 23 21 18 16 16 16 17 18 22 33 18 8 8 10 4 3 4 4 16 21 26 32 9 14 20 9 12 9 7 17 12 9 14 35 23 39 50 59 49 64 69
25 25 21 23 21 20 14 15 16 14 21 15 21 17 20 9 15 5 8 5 6 6 14 19 25 10 10 10 13 14 3 7 20 13 11 14 8 22 16 42 41 42 55 63 63
20 18 20 23 19 17 14 15 17 14 20 16 24 18 11 10 5 8 7 11 19 20 18 6 6 8 13 12 9 10 5 4 3 12 11 16 22 23 9 43 52 52 58 57 48
14 18 19 21 16 15 13 11 9 9 16 21 12 12 22 18 6 9 3 6 11 16 6 11 12 12 25 15 10 6 11 5 7 10 8 8 19 14 24 40 40 57 57 42 39
9 14 17 19 19 15 15 10 6 9 19 18 35 49 39 32 12 16 11 4 3 6 6 13 13 29 15 16 10 13 10 5 7 11 19 24 15 12 23 14 13 34 40 33 38
6 16 17 21 16 15 19 20 2 25 7 20 25 32 27 7 16 22 17 9 4 7 9 9 25 19 12 6 19 7 11 8 2 8 9 12 14 16 17 28 16 26 16 30 35
8 13 20 18 9 16 24 6 14 15 9 11 7 13 22 13 8 30 28 7 3 2 11 12 36 14 14 9 8 8 6 4 9 7 6 9 3 13 14 20 27 32 14 25 41
8 14 22 23 9 19 10 7 16 5 4 9 14 12 12 16 4 13 13 4 4 8 9 16 8 12 14 1 6 2 13 17 10 14 14 21 12 15 7 19 19 36 39 12 34
7 17 22 27 24 10 12 13 1 10 10 6 18 9 7 13 7 9 3 4 5 7 3 15 3 8 10 23 13 5 16 18 12 7 11 10 10 12 9 11 12 34 42 40 36
9 18 26 33 18 10 12 14 9 5 11 9 14 7 9 9 3 6 9 3 6 7 13 15 12 12 13 18 24 23 17 9 11 11 6 9 13 12 8 16 16 29 45 39 36
10 17 27 35 7 23 19 9 7 11 13 9 12 12 12 8 8 12 8 1 7 11 9 6 12 20 20 9 13 12 11 9 1 2 5 10 5 6 2 31 54 52 48 44 37
7 14 30 27 7 8 5 6 13 11 13 18 8 11 7 8 8 7 12 10 6 9 12 7 8 3 28 17 7 10 11 12 10 5 8 6 10 8 34 38 60 60 78 66 61
4 10 31 25 9 5 8 9 9 10 10 11 8 3 8 13 10 10 10 4 7 9 22 10 8 9 7 14 23 11 3 6 8 3 5 7 2 3 20 20 22 39 52 42 38
7 6 42 28 14 6 6 11 11 22 20 9 6 9 6 5 13 11 7 6 3 10 20 8 8 12 14 5 6 11 9 9 6 8 8 5 5 5 14 9 14 30 39 34 32
5 2 46 30 11 3 4 5 27 12 9 7 8 5 6 3 3 6 8 4 3 9 8 5 10 6 13 3 9 5 4 8 8 9 3 8 2 12 10 24 37 37 40 41 40
6 6 39 43 6 4 13 13 16 5 12 10 11 9 6 8 10 6 9 9 18 10 8 5 4 6 15 13 2 10 1 7 2 7 7 7 5 6 10 17 24 29 30 38 36
6 6 8 31 6 9 5 11 7 18 12 14 6 11 11 12 15 7 6 19 22 16 15 8 8 14 12 14 8 1 8 3 11 7 4 12 10 12 11 5 20 28 30 34 33
9 6 8 4 7 4 4 7 12 2 5 13 15 7 7 7 10 8 10 7 17 15 7 9 7 7 9 9 6 12 9 12 9 11 10 11 16 17 16 20 19 18 29 30 30
8 9 14 9 15 15 9 9 10 5 9 6 5 11 15 7 8 13 12 4 3 11 8 8 1 5 11 14 13 1 7 17 9 12 16 15 5 11 21 17 16 13 24 28 28
18 8 7 11 14 8 5 12 4 3 10 19 13 9 9 12 15 37 21 23 21 12 5 5 7 7 6 4 4 12 11 12 10 8 17 12 13 28 14 17 11 28 24 22 22
Wind_Direction_850mb
248 253 261 266 275 285 295 298 305 305 310 314 315 317 318 317 314 304 291 278 208 189 279 265 254 272 289 285 309 253 108 211 205 147 226 240 149 171 161 146 167 184 150 160 168
250 256 260 266 273 286 293 297 306 307 314 315 315 323 324 322 323 315 359 256 216 219 228 246 264 287 292 288 298 287 148 213 185 175 196 215 157 162 137 155 130 132 142 149 163
252 260 260 263 272 281 292 297 305 308 314 314 318 327 325 325 326 324 340 315 224 221 238 258 271 295 287 284 237 206 231 203 175 187 187 192 213 187 158 119 157 143 153 155 177
257 255 261 260 270 278 289 294 302 309 314 314 323 328 326 324 296 315 312 324 221 218 237 239 251 276 309 311 291 290 261 172 153 167 160 172 178 223 196 134 153 147 153 153 198
254 254 259 259 268 274 284 291 300 306 312 314 323 327 331 313 288 322 328 353 166 175 174 182 256 254 247 270 300 173 288 145 178 161 161 162 189 185 201 160 153 152 165 184 197
252 254 254 259 264 270 279 287 294 302 305 310 319 324 325 288 344 10 12 134 150 140 137 275 309 304 294 270 132 297 60 52 74 176 163 159 209 172 187 139 156 168 181 180 186
256 253 256 255 257 265 273 280 288 294 295 302 316 318 312 281 13 5 98 95 120 330 327 326 322 306 305 323 321 38 43 18 55 145 174 145 1 243 204 162 160 185 191 181 187
260 256 251 249 253 260 265 274 282 284 285 291 314 315 278 298 247 252 202 326 59 318 294 327 316 319 279 310 346 18 63 21 325 156 219 158 280 240 226 172 164 188 183 191 199
251 246 247 246 247 253 261 268 270 269 271 284 302 306 282 265 225 149 232 310 24 325 293 312 304 293 322 45 359 7 17 44 344 331 138 214 263 245 190 151 134 141 182 193 203
254 251 242 242 239 248 255 259 265 261 270 285 269 298 265 321 231 227 224 266 283 283 303 327 332 20 1 50 267 309 91 57 269 4 327 343 5 25 62 150 140 157 175 189 205
246 236 230 234 237 240 248 271 279 273 277 238 278 260 307 348 176 218 190 227 235 270 1 2 31 283 273 258 242 254 145 94 261 258 15 324 51 13 57 103 129 158 174 184 204
259 241 226 234 226 231 237 232 150 348 305 300 261 268 292 295 274 234 217 194 142 236 335 1 287 265 242 280 113 94 118 221 282 271 88 77 31 345 35 98 139 173 195 211 201
254 229 218 222 217 229 239 194 179 335 297 299 269 266 268 203 221 211 205 220 251 345 310 197 253 320 273 16 85 41 61 8 281 348 97 101 36 10 330 354 73 78 190 198 209
242 216 215 204 219 209 207 97 301 354 47 277 256 277 267 244 278 208 202 210 27 225 298 244 277 224 64 81 114 46 255 38 334 18 70 19 24 355 330 329 356 24 127 208 201
264 217 211 191 200 186 129 47 328 330 50 228 212 232 230 189 341 152 160 188 124 280 68 271 307 76 68 296 102 318 46 24 4 76 87 356 71 281 336 348 341 345 22 77 185
273 219 208 207 211 111 348 157 167 54 262 230 182 239 109 207 270 178 129 335 312 305 15 244 168 91 141 51 46 24 40 33 40 65 51 312 112 305 6 315 32 50 83 100 137
266 222 209 208 142 53 19 161 54 148 292 182 181 169 177 206 236 148 168 168 143 27 9 345 349 343 25 71 18 58 50 2 18 19 186 283 59 239 337 2 43 88 82 88 111
263 223 212 199 95 23 31 63 163 243 252 227 156 150 182 192 196 193 108 273 244 73 63 53 14 359 326 64 162 62 104 127 92 141 246 350 121 322 223 55 70 72 96 90 92
260 216 218 168 170 16 13 86 210 227 302 166 86 131 245 260 161 159 171 203 267 141 133 133 61 148 61 22 60 321 41 176 122 55 68 318 328 305 52 59 64 73 82 82 87
219 206 210 165 144 52 78 229 242 254 341 72 104 104 209 229 137 137 184 205 143 159 135 197 96 37 348 14 35 76 64 40 24 76 96 318 333 276 69 90 81 84 95 98 96
160 210 172 153 170 193 159 236 293 289 39 72 103 42 359 2 155 168 178 15 84 133 101 105 85 340 42 2 228 356 10 32 112 116 144 173 315 14 138 167 109 115 99 103 86
167 189 180 179 173 153 183 233 324 273 22 2 81 74 34 320 304 97 118 6 34 103 90 65 112 78 210 291 359 43 66 86 112 296 73 133 294 345 230 138 114 117 99 82 91
0 309 184 190 169 357 299 304 277 311 28 34 21 18 11 329 92 53 107 36 90 81 127 141 46 68 346 353 28 80 278 152 101 42 119 63 272 265 282 111 99 96 76 89 82
33 29 155 201 133 127 10 297 291 46 61 30 347 34 16 16 17 108 69 33 58 68 63 83 119 145 175 205 141 326 303 214 112 102 261 171 166 238 302 86 125 82 93 88 81
41 31 23 296 263 185 107 294 298 274 39 33 344 52 39 321 43 56 35 58 42 25 64 94 102 119 214 119 154 189 227 227 146 153 143 177 165 204 218 207 118 71 97 84 69
59 12 353 303 295 184 147 263 220 199 138 264 189 333 20 27 147 185 138 114 202 1 64 10 140 87 22 181 180 356 354 100 89 132 77 141 183 194 195 164 125 72 96 79 63
35 27 335 358 359 72 280 268 282 67 213 211 226 96 43 341 322 159 162 166 171 144 107 76 103 66 298 24 86 25 337 92 86 58 156 187 189 166 201 189 133 113 92 92 63